Regional Weather Roundup
Issued by NWS Charleston, SC

Current Version | Previous Version | Graphics & Text | Print | Product List | Glossary On
Versions: 1 2 3 4 5 6 7 8 9 10 11 12 13 14 15 16 17 18 19 20 21 22 23 24 25 26 27 28 29 30 31 32 33 34 35 36 37 38 39 40 41 42 43 44 45 46 47 48 49 50
000
ASUS42 KCHS 141713
RWRCHS

REGIONAL WEATHER ROUNDUP
NATIONAL WEATHER SERVICE CHARLESTON SC
1200 PM EST SUN FEB 14 2016

NOTE: "FAIR" INDICATES FEW OR NO CLOUDS BELOW 12,000 FEET WITH NO
SIGNIFICANT WEATHER AND/OR OBSTRUCTIONS TO VISIBILITY.

NOT ALL STATIONS ARE QUALITY CONTROLLED BY THE NATIONAL
WEATHER SERVICE. USE DATA WITH CAUTION...ESPECIALLY
DEWPOINT OBSERVATIONS.

SCZ027-030-031-034>040-042>050-141800-
...SOUTHEAST SOUTH CAROLINA...

CITY           SKY/WX    TMP DP  RH WIND       PRES   REMARKS
N CHARLESTON   MOSUNNY   39  11  31 E7        30.49F WCI  34
WATERFRONT PRK   N/A     35  22  58 NE15      30.33F WCI  25
MOUNT PLEASANT FAIR      37  18  44 E7        30.50S WCI  32
JOHNS ISLAND   FAIR      37  19  48 NE15G23   30.49S WCI  28
PINOPOLIS        N/A     34   9  35 NE7       30.44R WCI  28
MONCKS CORNER  FAIR      34   1  25 NE7       30.51S WCI  28
SUMMERVILLE    FAIR      37  10  32 N7        30.50S WCI  32
BEAUFORT MCAS  SUNNY     41  18  39 E10       30.47F
BEAUFORT ARPT  FAIR      41  21  45 E13       30.47F
HILTON HEAD IS SUNNY     41  30  65 NE14G25   30.47S
WALTERBORO     SUNNY     41   7  24 E12       30.48F
ALLENDALE      FAIR      37   7  28 VRB3      30.45F

...SOUTHERN MIDLANDS AND PEE DEE...

CITY           SKY/WX    TMP DP  RH WIND       PRES   REMARKS
GEORGETOWN     FAIR      32  12  43 NE12      30.53S WCI  23
KINGSTREE      FAIR      32   5  32 N8        30.53S WCI  25
ORANGEBURG     SUNNY     35   4  27 E9G16     30.48F WCI  28
BARNWELL       FAIR      37   9  30 E8        30.47F WCI  31
AIKEN          FAIR      34   3  27 NE13      30.48F WCI  25
MANNING        FAIR      34   3  27 E6        30.51F WCI  29
COLUMBIA       PTSUNNY   35   0  22 E13       30.49F WCI  26
SUMTER         PTSUNNY   33   4  28 NE9G16    30.48F WCI  25
FLORENCE       CLOUDY    32   1  26 MISG      30.53F
MYRTLE BEACH   SUNNY     34   5  29 NE9       30.54F WCI  26
N MYRTLE BEACH SUNNY     33   4  29 NE8       30.52F WCI  26

$$

GAZ063-065-086>088-099>101-113>116-118-119-134>141-150-141800-
...SOUTHEAST GEORGIA...

CITY           SKY/WX    TMP DP  RH WIND       PRES   REMARKS
SAVANNAH ARPT  PTSUNNY   43  22  43 E10       30.46S
HUNTER AAF     CLOUDY    41  27  57 NE14      30.43S
FORT STEWART   PTSUNNY   45  28  53 E8        30.41F
STATESBORO     SUNNY     46   6  19 E9        30.43F
SYLVANIA       SUNNY     42  20  41 E8        30.44F
CLAXTON        FAIR      44  25  47 NE7       30.43F

...CSRA...CENTRAL AND FAR SOUTHEAST GEORGIA...

CITY           SKY/WX    TMP DP  RH WIND       PRES   REMARKS
THOMSON        SUNNY     39  11  31 E7        30.47F WCI  34
AUGUSTA-BUSH   SUNNY     39   7  26 E13       30.45F WCI  31
AUGUSTA-DANIEL MOSUNNY   37   4  25 E7        30.44F WCI  32
SWAINSBORO     FAIR      43  18  36 SE9       30.42F
VIDALIA        CLOUDY    45  23  42 E13       30.41F
EASTMAN        FAIR      45  23  42 E7        30.42F
HAZLEHURST     FAIR      47  26  44 E7        30.39F
ALMA           SUNNY     48  32  53 E12       30.39F
WAYCROSS       SUNNY     54  40  59 E10G18    30.38F
JESUP          CLOUDY    50  37  62 E10       30.42S
BAXLEY         FAIR      48  30  49 E8        30.39F
BRUNSWICK      CLOUDY    50  41  71 NE17      30.41S
SAINT SIMONS   CLOUDY    49  41  74 NE18G26   30.39S

$$

SCZ027-028-034-036>038-045-046-048>050-GAZ119-141-141800-
...LAKE AND SUPPLEMENTAL COASTAL OBSERVATIONS...

STATION/POSITION TIME  TEMP    WIND        PRES    WAVE   SWELL
                       AIR SEA DIR/SP/G            HT/PER HT/PER/DIR
                 (UTC) (F)     (DEG/KT/KT) (MB)    (FT/S) (FT/S/D)
WINYAH BAY       NOT AVBL
LAKE MURRAY      1600   29      90/ 11/ 13 1032.2F
ACE BASIN NERRS  NOT AVBL
FORT PULASKI     1600   38 50   40/ 20/ 25 1031.4R
SAPELO ISLAND    1600   48      50/ 16     1029.0S

$$

ANZ835-935-AMZ111-154-330-350-352-354-370-450-454-472-141800-
...C-MAN AND BUOY OBSERVATIONS...

STATION/POSITION TIME  TEMP    WIND        PRES    WAVE   SWELL
                       AIR SEA DIR/SP/G            HT/PER HT/PER/DIR
                 (UTC) (F)     (DEG/KT/KT) (MB)    (FT/S) (FT/S/D)
BUOY 41004       1650   43 68   40/ 17/ 23 1030.5F   5/ 7   2/11
BUOY 41008       1650   47 53   40/ 21/ 25 1028.9R   7/ 7
FOLLY BEACH CMAN 1700   35      40/ 22/ 26 1032.4F
CAPERS NEARSHORE NOT AVBL
FRIPP NEARSHORE  1600   40      60/ 23/ 27 1029.7R


STATION/POSITION TIME  TEMP    WIND        PRES    WAVE   SWELL
                       AIR SEA DIR/SP/G            HT/PER HT/PER/DIR
                 (UTC) (F)     (DEG/KT/KT) (MB)    (FT/S) (FT/S/D)
5E ST. MARYS GA  1621      55                N/A     4/ 5
FRYING PAN BUOY  1600   35 62   20/ 17/ 21 1033.3R
BUOY 41025       1650   29 71   10/ 17/ 23 1033.3R   5/ 8
CAPE LOOKOUT NC  1600   25      10/ 16/ 21 1034.2R
BUOY 41002       1650   48 67   30/ 12/ 17   N/A     9/11   8/ 20/11
BUOY 41010       1620   62 72              1026.3R
ST AUGUSTINE FL  1700   55 57  360/ 18/ 19 1027.4F


$$



USA.gov is the U.S. government's official web portal to all federal, state and local government web resources and services.